Fremont, MI

4:26 PM EDT on October 16, 2019 (GMT -0400)
Fremont

Weather History for KFFX - May, 2019

Change the Weather History Date:

Monday, May 27, 2019

  Actual Average (KMKG) Record (KMKG)
Temperature  
Mean Temperature 60 °F -  
Max Temperature 74 °F 70 °F 87 °F (2018)
Min Temperature 47 °F 49 °F 27 °F (1961)
Degree Days  
Heating Degree Days 4    
Growing Degree Days 10 (Base 50)    
Moisture  
Dew Point 52 °F    
Average Humidity 76    
Maximum Humidity 99    
Minimum Humidity 41    
Precipitation  
Precipitation 0.00 in - - ()
Sea Level Pressure  
Sea Level Pressure 29.95 in    
Wind  
Wind Speed 4 mph ()    
Max Wind Speed 15 mph    
Max Gust Speed 22 mph    
Visibility 9.7 miles    
Events Rain    
Averages and records for this station are not official NWS values.
T = Trace of Precipitation, MM = Missing Value Source: Averaged Metar Reports

Daily Weather History Graph

Daily Weather History Graph

Search for Another Location

Airport or City:

Astronomy

May. 27, 2019 Rise Set
Actual Time 6:09 AM EDT 9:13 PM EDT
Civil Twilight 5:34 AM EDT 9:47 PM EDT
Nautical Twilight 4:50 AM EDT 10:32 PM EDT
Astronomical Twilight 3:58 AM EDT 11:24 PM EDT
Moon 3:08 AM EDT (5/27) 2:10 PM EDT (5/27)
Length of Visible Light 16h 13m
Length of Day
15h 04m
Last Quarter, 41% of the Moon is Illuminated
May 27
Last Quarter
Jun 3
New
Jun 10
First Quarter
Jun 17
Full
Jun 25
Last Quarter

Hourly Weather History & Observations

Time (EDT) Temp. Dew Point Humidity Pressure Visibility Wind Dir Wind Speed Gust Speed Precip Events Conditions
12:16 AM 55.6 °F 45.3 °F 68% 30.06 in 10.0 mi Calm Calm - N/A   Clear
12:35 AM 54.9 °F 45.5 °F 71% 30.05 in 10.0 mi Calm Calm - N/A   Clear
12:36 AM 54.7 °F 45.5 °F 71% 30.05 in 10.0 mi Calm Calm - N/A   Clear
12:55 AM 55.6 °F 45.1 °F 68% 30.04 in 10.0 mi Calm Calm - N/A   Clear
1:15 AM 53.1 °F 46.4 °F 78% 30.05 in 10.0 mi Calm Calm - N/A   Clear
1:16 AM 53.1 °F 46.4 °F 78% 30.05 in 10.0 mi Calm Calm - N/A   Clear
1:35 AM 52.3 °F 46.6 °F 81% 30.07 in 10.0 mi Calm Calm - N/A   Clear
1:36 AM 52.3 °F 46.6 °F 81% 30.07 in 10.0 mi Calm Calm - N/A   Clear
1:55 AM 52.0 °F 46.4 °F 81% 30.06 in 10.0 mi Calm Calm - N/A   Clear
2:15 AM 52.3 °F 46.0 °F 79% 30.06 in 10.0 mi Calm Calm - N/A   Clear
2:16 AM 52.2 °F 46.0 °F 80% 30.06 in 10.0 mi Calm Calm - N/A   Clear
2:35 AM 51.8 °F 46.4 °F 82% 30.05 in 10.0 mi Calm Calm - N/A   Clear
2:55 AM 51.3 °F 46.8 °F 85% 30.05 in 10.0 mi Calm Calm - N/A   Clear
3:15 AM 50.9 °F 47.1 °F 87% 30.05 in 10.0 mi Calm Calm - N/A   Scattered Clouds
3:35 AM 50.4 °F 47.3 °F 89% 30.05 in 10.0 mi Calm Calm - N/A   Scattered Clouds
3:36 AM 50.2 °F 47.3 °F 90% 30.05 in 10.0 mi Calm Calm - N/A   Scattered Clouds
3:55 AM 49.3 °F 47.5 °F 94% 30.05 in 10.0 mi Calm Calm - N/A   Clear
3:56 AM 49.5 °F 47.5 °F 93% 30.05 in 10.0 mi Calm Calm - N/A   Clear
4:15 AM 49.3 °F 47.5 °F 94% 30.05 in 10.0 mi North 4.6 mph - N/A   Clear
4:35 AM 48.9 °F 47.3 °F 94% 30.06 in 10.0 mi NNW 3.5 mph - N/A   Clear
4:36 AM 48.7 °F 47.3 °F 95% 30.06 in 10.0 mi NNW 3.5 mph - N/A   Clear
4:55 AM 48.6 °F 47.7 °F 97% 30.05 in 10.0 mi Calm Calm - N/A   Scattered Clouds
4:56 AM 48.6 °F 47.8 °F 97% 30.05 in 10.0 mi Calm Calm - N/A   Scattered Clouds
5:15 AM 49.3 °F 48.6 °F 97% 30.05 in 10.0 mi Calm Calm - N/A   Scattered Clouds
5:35 AM 48.9 °F 48.2 °F 97% 30.05 in 10.0 mi Calm Calm - N/A   Clear
5:36 AM 48.7 °F 48.2 °F 98% 30.05 in 10.0 mi Calm Calm - N/A   Clear
5:55 AM 48.6 °F 48.0 °F 98% 30.05 in 10.0 mi Calm Calm - N/A   Clear
6:15 AM 47.5 °F 47.3 °F 99% 30.05 in 10.0 mi Calm Calm - N/A   Clear
6:16 AM 47.7 °F 47.3 °F 99% 30.05 in 10.0 mi Calm Calm - N/A   Clear
6:35 AM 50.9 °F 50.7 °F 99% 30.05 in 10.0 mi East 3.5 mph - N/A   Clear
6:55 AM 52.9 °F 52.2 °F 97% 30.06 in 10.0 mi East 4.6 mph - N/A   Clear
7:15 AM 53.6 °F 52.5 °F 96% 30.06 in 10.0 mi ESE 3.5 mph - N/A   Clear
7:16 AM 53.6 °F 52.5 °F 96% 30.06 in 10.0 mi ESE 3.5 mph - N/A   Clear
7:35 AM 54.5 °F 53.1 °F 95% 30.07 in 10.0 mi East 4.6 mph - N/A   Clear
7:36 AM 54.5 °F 53.1 °F 95% 30.07 in 10.0 mi ESE 4.6 mph - N/A   Clear
7:55 AM 56.3 °F 54.5 °F 94% 30.07 in 10.0 mi ESE 6.9 mph - N/A   Clear
8:15 AM 57.6 °F 54.7 °F 90% 30.06 in 10.0 mi ESE 8.1 mph - N/A   Clear
8:16 AM 57.6 °F 54.7 °F 90% 30.06 in 10.0 mi ESE 8.1 mph - N/A   Clear
8:35 AM 58.6 °F 53.8 °F 84% 30.07 in 10.0 mi SE 8.1 mph - N/A   Clear
8:36 AM 58.8 °F 53.6 °F 83% 30.07 in 10.0 mi SE 9.2 mph - N/A   Clear
8:55 AM 60.8 °F 53.4 °F 77% 30.07 in 10.0 mi ESE 8.1 mph - N/A   Clear
9:15 AM 62.2 °F 52.9 °F 71% 30.06 in 10.0 mi SE 8.1 mph - N/A   Clear
9:35 AM 63.5 °F 52.5 °F 67% 30.07 in 10.0 mi SE 5.8 mph - N/A   Clear
9:36 AM 63.5 °F 52.7 °F 68% 30.07 in 10.0 mi ESE 6.9 mph - N/A   Clear
9:55 AM 66.2 °F 51.4 °F 59% 30.05 in 10.0 mi SSE 5.8 mph - N/A   Clear
10:15 AM 66.7 °F 50.4 °F 56% 30.05 in 10.0 mi SE 6.9 mph - N/A   Clear
10:35 AM 68.0 °F 53.4 °F 60% 30.03 in 10.0 mi SE 12.7 mph 17.3 mph N/A   Scattered Clouds
10:36 AM 68.0 °F 53.4 °F 60% 30.03 in 10.0 mi SE 12.7 mph 17.3 mph N/A   Scattered Clouds
10:55 AM 68.4 °F 55.4 °F 63% 30.02 in 10.0 mi SE 10.4 mph - N/A   Mostly Cloudy
10:56 AM 68.5 °F 55.6 °F 63% 30.01 in 10.0 mi SE 11.5 mph - N/A   Mostly Cloudy
11:15 AM 69.1 °F 54.9 °F 60% 30.01 in 10.0 mi SSE 12.7 mph 21.9 mph N/A   Mostly Cloudy
11:35 AM 67.5 °F 55.4 °F 65% 30.01 in 10.0 mi SSE 6.9 mph 16.1 mph N/A   Mostly Cloudy
11:36 AM 67.6 °F 55.6 °F 65% 30.01 in 10.0 mi SSE 9.2 mph 17.3 mph N/A   Mostly Cloudy
11:55 AM 68.2 °F 53.2 °F 59% 30.01 in 10.0 mi SSE 10.4 mph 19.6 mph N/A   Overcast
12:15 PM 69.6 °F 51.6 °F 53% 30.02 in 10.0 mi SE 12.7 mph 20.7 mph N/A   Mostly Cloudy
12:35 PM 70.0 °F 53.2 °F 55% 30.02 in 10.0 mi South 9.2 mph - N/A   Mostly Cloudy
12:36 PM 70.2 °F 53.1 °F 55% 30.02 in 10.0 mi South 10.4 mph - N/A   Mostly Cloudy
12:55 PM 70.0 °F 52.3 °F 53% 30.00 in 10.0 mi SE 10.4 mph 17.3 mph N/A   Mostly Cloudy
12:56 PM 70.0 °F 52.2 °F 53% 30.00 in 10.0 mi SSE 10.4 mph 17.3 mph N/A   Mostly Cloudy
1:15 PM 70.5 °F 52.3 °F 52% 29.98 in 10.0 mi SE 11.5 mph 17.3 mph N/A   Mostly Cloudy
1:35 PM 72.3 °F 51.1 °F 47% 29.97 in 10.0 mi South 10.4 mph - N/A   Scattered Clouds
1:36 PM 72.5 °F 51.1 °F 47% 29.97 in 10.0 mi SSE 9.2 mph - N/A   Scattered Clouds
1:55 PM 73.0 °F 51.1 °F 46% 29.97 in 10.0 mi SE 11.5 mph 20.7 mph N/A   Mostly Cloudy
1:56 PM 73.2 °F 50.7 °F 45% 29.97 in 10.0 mi SSE 10.4 mph 20.7 mph N/A   Mostly Cloudy
2:15 PM 73.2 °F 50.7 °F 45% 29.98 in 10.0 mi SSE 4.6 mph 18.4 mph N/A   Mostly Cloudy
2:35 PM 71.6 °F 49.6 °F 46% 29.98 in 10.0 mi SSE 8.1 mph - N/A   Mostly Cloudy
2:36 PM 71.6 °F 49.6 °F 46% 29.98 in 10.0 mi SSE 9.2 mph - N/A   Mostly Cloudy
2:55 PM 71.6 °F 50.0 °F 46% 29.97 in 10.0 mi SSE 5.8 mph - N/A   Mostly Cloudy
2:56 PM 71.8 °F 50.4 °F 47% 29.97 in 10.0 mi SSE 5.8 mph - N/A   Mostly Cloudy
3:15 PM 72.7 °F 49.8 °F 44% 29.94 in 10.0 mi SSE 10.4 mph - N/A   Mostly Cloudy
3:16 PM 72.7 °F 49.5 °F 44% 29.94 in 10.0 mi SE 8.1 mph - N/A   Mostly Cloudy
3:35 PM 74.1 °F 49.5 °F 42% 29.93 in 10.0 mi SSE 8.1 mph - N/A   Scattered Clouds
3:36 PM 74.1 °F 49.3 °F 41% 29.93 in 10.0 mi SSE 6.9 mph - N/A   Scattered Clouds
3:55 PM 71.8 °F 49.5 °F 45% 29.92 in 10.0 mi SE 9.2 mph - N/A   Mostly Cloudy
4:15 PM 69.6 °F 52.2 °F 54% 29.90 in 10.0 mi SSE 8.1 mph - N/A Rain Light Rain
4:35 PM 68.4 °F 52.9 °F 58% 29.88 in 10.0 mi SE 5.8 mph - N/A   Drizzle
4:36 PM 68.2 °F 53.2 °F 59% 29.88 in 10.0 mi ESE 5.8 mph - N/A   Drizzle
4:55 PM 68.5 °F 53.2 °F 58% 29.85 in 10.0 mi ESE 6.9 mph - N/A Rain Light Rain
5:15 PM 69.1 °F 52.5 °F 55% 29.85 in 10.0 mi SE 8.1 mph - N/A   Mostly Cloudy
5:35 PM 68.5 °F 53.6 °F 59% 29.83 in 10.0 mi SE 8.1 mph - N/A   Light Drizzle
5:36 PM 68.4 °F 53.8 °F 60% 29.83 in 10.0 mi SE 9.2 mph - N/A   Light Drizzle
5:55 PM 67.1 °F 54.0 °F 63% 29.81 in 10.0 mi ESE 12.7 mph 18.4 mph N/A Rain Rain
6:15 PM 66.0 °F 53.8 °F 65% 29.82 in 10.0 mi SE 8.1 mph 16.1 mph N/A Rain Rain
6:35 PM 63.9 °F 55.4 °F 74% 29.82 in 10.0 mi ESE 6.9 mph - N/A Rain Rain
6:36 PM 63.7 °F 55.4 °F 74% 29.82 in 10.0 mi SE 5.8 mph - N/A Rain Rain
6:55 PM 62.6 °F 56.8 °F 81% 29.80 in 10.0 mi East 6.9 mph - N/A Rain Light Rain
7:15 PM 61.9 °F 59.0 °F 90% 29.81 in 10.0 mi SE 3.5 mph - N/A Rain Rain
7:35 PM 61.0 °F 59.2 °F 94% 29.77 in 7.0 mi East 10.4 mph - N/A Rain Light Rain
7:36 PM 61.0 °F 59.2 °F 94% 29.77 in 10.0 mi East 10.4 mph - N/A Rain Light Rain
7:55 PM 60.4 °F 59.0 °F 95% 29.78 in 7.0 mi East 12.7 mph 18.4 mph N/A Rain Rain
8:15 PM 59.9 °F 59.2 °F 97% 29.79 in 5.0 mi East 11.5 mph - N/A Rain Light Rain
8:16 PM 59.7 °F 59.0 °F 97% 29.79 in 5.0 mi East 11.5 mph - N/A Rain Light Rain
8:35 PM 59.0 °F 58.1 °F 97% 29.78 in 5.0 mi ESE 8.1 mph - N/A Rain Rain
8:36 PM 59.0 °F 58.1 °F 97% 29.78 in 7.0 mi ESE 8.1 mph - N/A Rain Rain
8:55 PM 58.3 °F 57.6 °F 97% 29.78 in 7.0 mi East 13.8 mph - N/A Rain Light Rain
9:15 PM 57.2 °F 56.3 °F 97% 29.77 in 7.0 mi East 10.4 mph 18.4 mph N/A Rain Rain
9:16 PM 57.2 °F 56.3 °F 97% 29.77 in 7.0 mi East 9.2 mph 18.4 mph N/A Rain Rain
9:35 PM 56.7 °F 56.1 °F 98% 29.75 in 10.0 mi East 15.0 mph 20.7 mph N/A Rain Light Rain
9:36 PM 56.7 °F 55.9 °F 97% 29.74 in 10.0 mi East 13.8 mph 20.7 mph N/A Rain Light Rain
9:55 PM 56.3 °F 55.8 °F 98% 29.75 in 10.0 mi East 10.4 mph - N/A   Overcast
10:15 PM 55.9 °F 55.4 °F 98% 29.74 in 10.0 mi East 8.1 mph - N/A   Overcast
10:35 PM 55.8 °F 55.0 °F 97% 29.74 in 10.0 mi East 10.4 mph 17.3 mph N/A   Overcast
10:36 PM 55.8 °F 55.0 °F 97% 29.74 in 10.0 mi East 10.4 mph - N/A   Overcast
10:55 PM 55.6 °F 54.9 °F 97% 29.73 in 10.0 mi ESE 10.4 mph 19.6 mph N/A   Overcast
11:15 PM 55.6 °F 54.9 °F 97% 29.72 in 10.0 mi ESE 11.5 mph 20.7 mph N/A Rain Rain
11:35 PM 55.9 °F 54.9 °F 96% 29.71 in 10.0 mi ESE 9.2 mph 16.1 mph N/A   Overcast
11:55 PM 56.3 °F 54.9 °F 95% 29.70 in 10.0 mi ESE 10.4 mph 18.4 mph N/A   Overcast
11:56 PM 56.3 °F 54.9 °F 95% 29.70 in 10.0 mi ESE 11.5 mph 18.4 mph N/A   Overcast